Weather History for KARA - October, 2013

Change the Weather History Date:

Sunday, October 27, 2013

  Actual Average Record
Temperature  
Mean Temperature 63 °F 67 °F  
Max Temperature 74 °F 79 °F 89 °F (2010)
Min Temperature 52 °F 55 °F 34 °F (1957)
Degree Days  
Heating Degree Days 2 2  
Month to date heating degree days 6 22  
Since 1 July heating degree days 6 23  
Cooling Degree Days 0 4  
Month to date cooling degree days 218 174  
Year to date cooling degree days 3096 2730  
Growing Degree Days 13 (Base 50)    
Moisture  
Dew Point 58 °F    
Average Humidity 84    
Maximum Humidity 100    
Minimum Humidity 68    
Precipitation  
Precipitation T in 0.07 in 2.60 in (1985)
Month to date precipitation 3.40 4.70  
Year to date precipitation 60.49 50.18  
Sea Level Pressure  
Sea Level Pressure 30.11 in    
Wind  
Wind Speed 6 mph (ESE)    
Max Wind Speed 18 mph    
Max Gust Speed 30 mph    
Visibility 6 miles    
Events Fog , Rain    
T = Trace of Precipitation, MM = Missing Value Source: NWS Daily Summary

Daily Weather History Graph

Daily Weather History Graph

Search for Another Location

Airport or City:

Trip Planner

Search our weather history database for the weather conditions in past years. The results will help you decide how hot, cold, wet, or windy it might be!

Date:

Astronomy

Oct. 27, 2013 Rise Set
Actual Time 7:17 AM CDT 6:24 PM CDT
Civil Twilight 6:53 AM CDT 6:48 PM CDT
Nautical Twilight 6:25 AM CDT 7:17 PM CDT
Astronomical Twilight 5:57 AM CDT 7:44 PM CDT
Moon 12:44 AM CDT (10/27) 2:07 PM CDT (10/27)
Length of Visible Light 11h 55m
Length of Day
11h 06m
Last Quarter, 43% of the Moon is Illuminated
Oct 27
Last Quarter
Nov 3
New
Nov 9
First Quarter
Nov 17
Full
Nov 25
Last Quarter

Hourly Weather History & Observations

Time (CDT) Temp. Dew Point Humidity Pressure Visibility Wind Dir Wind Speed Gust Speed Precip Events Conditions
12:53 AM 55.9 °F 53.1 °F 90% 30.14 in 10.0 mi Calm Calm - N/A   Clear
1:53 AM 55.0 °F 52.0 °F 89% 30.13 in 8.0 mi ESE 3.5 mph - N/A   Clear
2:53 AM 54.0 °F 53.1 °F 97% 30.12 in 9.0 mi Calm Calm - N/A   Clear
3:53 AM 53.1 °F 51.1 °F 93% 30.12 in 5.0 mi Calm Calm - N/A   Clear
4:53 AM 55.9 °F 54.0 °F 93% 30.11 in 4.0 mi Calm Calm - N/A   Clear
5:11 AM 55.4 °F 53.6 °F 94% 30.11 in 1.8 mi Calm Calm - N/A   Clear
5:44 AM 53.6 °F 51.8 °F 94% 30.10 in 0.5 mi Calm Calm - N/A Fog Fog
5:53 AM 55.0 °F 53.1 °F 93% 30.10 in 3.0 mi Calm Calm - N/A   Clear
6:01 AM 57.2 °F 55.4 °F 94% 30.11 in 1.8 mi Calm Calm - N/A   Clear
6:10 AM 55.4 °F 55.4 °F 100% 30.11 in 0.5 mi Calm Calm - N/A Fog Fog
6:17 AM 55.4 °F 53.6 °F 94% 30.11 in 0.2 mi Calm Calm - N/A Fog Fog
6:30 AM 55.4 °F 53.6 °F 94% 30.11 in 0.8 mi Calm Calm - N/A   Mist
6:41 AM 53.6 °F 51.8 °F 94% 30.12 in 0.2 mi NNW 3.5 mph - N/A Fog Fog
6:50 AM 55.4 °F 53.6 °F 94% 30.12 in 0.2 mi North 4.6 mph - N/A Fog Fog
6:53 AM 55.0 °F 53.1 °F 93% 30.12 in 0.2 mi North 4.6 mph - N/A Fog Fog
7:08 AM 55.4 °F 53.6 °F 94% 30.14 in 1.0 mi North 5.8 mph - N/A   Mist
7:11 AM 55.4 °F 53.6 °F 94% 30.14 in 2.0 mi North 4.6 mph - N/A   Scattered Clouds
7:36 AM 55.4 °F 53.6 °F 94% 30.14 in 4.0 mi NE 4.6 mph - N/A   Partly Cloudy
7:40 AM 55.4 °F 55.4 °F 100% 30.14 in 1.8 mi NE 4.6 mph - N/A   Scattered Clouds
7:44 AM 57.2 °F 57.2 °F 100% 30.14 in 0.8 mi NE 3.5 mph - N/A   Mist
7:51 AM 60.8 °F 57.2 °F 88% 30.14 in 1.2 mi ENE 3.5 mph - N/A   Partly Cloudy
7:53 AM 60.1 °F 59.0 °F 96% 30.14 in 2.0 mi ENE 4.6 mph - N/A   Partly Cloudy
8:02 AM 60.8 °F 59.0 °F 94% 30.14 in 4.0 mi ENE 3.5 mph - N/A   Partly Cloudy
8:53 AM 61.0 °F 59.0 °F 93% 30.14 in 8.0 mi East 3.5 mph - N/A   Clear
9:53 AM 64.9 °F 61.0 °F 87% 30.15 in 10.0 mi SE 4.6 mph - N/A   Clear
10:53 AM 66.9 °F 62.1 °F 84% 30.14 in 10.0 mi North - - N/A   Clear
11:53 AM 69.1 °F 63.0 °F 81% 30.14 in 10.0 mi SE 5.8 mph - 0.00 in Rain Light Rain
12:53 PM 70.0 °F 64.0 °F 81% 30.11 in 10.0 mi SE 8.1 mph - 0.00 in Rain Light Rain
1:53 PM 72.0 °F 64.0 °F 76% 30.05 in 10.0 mi SSE 16.1 mph - 0.00 in   Overcast
2:53 PM 73.0 °F 64.0 °F 73% 30.05 in 10.0 mi SSE 9.2 mph - N/A   Overcast
3:53 PM 72.0 °F 63.0 °F 73% 30.05 in 10.0 mi SSE 8.1 mph - N/A   Mostly Cloudy
4:53 PM 73.0 °F 63.0 °F 71% 30.05 in 10.0 mi SSE 9.2 mph - 0.00 in   Partly Cloudy
5:53 PM 72.0 °F 63.0 °F 73% 30.04 in 10.0 mi SSE 9.2 mph - N/A   Mostly Cloudy
6:53 PM 68.0 °F 62.1 °F 81% 30.05 in 10.0 mi SE 3.5 mph - N/A   Scattered Clouds
7:53 PM 66.9 °F 62.1 °F 84% 30.06 in 10.0 mi SSE 6.9 mph - N/A   Mostly Cloudy
8:53 PM 66.0 °F 63.0 °F 90% 30.07 in 10.0 mi SE 6.9 mph - N/A   Scattered Clouds
9:53 PM 64.9 °F 62.1 °F 90% 30.07 in 10.0 mi SE 6.9 mph - N/A   Scattered Clouds
10:53 PM 64.9 °F 62.1 °F 90% 30.09 in 10.0 mi SSE 4.6 mph - N/A   Partly Cloudy
11:53 PM 63.0 °F 61.0 °F 93% 30.07 in 10.0 mi SE 6.9 mph - N/A   Partly Cloudy